                ,  0.945,  1.145,  1.345,  1.545,  1.745,  1.945,  2.145,  2.345,  2.545,  2.745,  2.945,  3.145,  3.345,  3.545,  3.745,  3.945,  4.145,  4.345,  4.545,  4.745,  4.945,  5.145,  5.345,  5.545,  5.745,  5.945,  6.145,  6.345,  6.545,  6.745,  6.945,  7.145,  7.345,  7.545,  7.745,  7.945,  8.145,  8.345,  8.545,  8.745,  8.945,  9.145,  9.345,  9.545,  9.745,  9.945
2000/03/04 00:00,  999.0,  999.0,  999.0,  999.0,  999.0,  999.0,  999.0,   -0.3,   -0.3,  999.0,    0.2,  999.0,   -0.2,   -0.6,   -0.8,   -0.8,   -0.8,   -0.7,   -0.7,   -0.7,   -0.7,   -0.7,   -0.6,   -0.5,   -0.6,   -0.6,   -0.6,   -0.4,   -0.4,   -0.4,  999.0,  999.0,  999.0,  999.0,  999.0,  999.0,  999.0,  999.0,  999.0,  999.0,  999.0,  999.0,  999.0,  999.0,  999.0,  999.0
2000/03/04 00:10,    0.2,  999.0,  999.0,    0.3,  999.0,    0.1,   -0.0,   -0.2,  999.0,   -0.1,   -0.2,   -0.1,   -0.6,   -1.1,   -1.3,   -0.9,   -0.9,   -0.7,   -0.5,   -0.7,   -0.7,   -0.8,   -0.7,   -0.6,   -0.5,   -0.4,   -0.3,   -0.4,   -0.2,  999.0,  999.0,  999.0,  999.0,  999.0,  999.0,  999.0,  999.0,  999.0,  999.0,  999.0,  999.0,  999.0,  999.0,  999.0,  999.0,  999.0
2000/03/04 00:20,   -0.1,  999.0,  999.0,  999.0,  999.0,  999.0,   -0.0,   -0.2,  999.0,  999.0,  999.0,  999.0,   -0.3,   -0.3,   -0.7,   -0.4,   -0.1,   -0.1,   -0.3,   -0.5,  999.0,  999.0,   -0.6,   -0.4,   -0.5,   -0.4,   -0.5,   -0.5,   -0.5,   -0.5,   -0.5,   -0.4,   -0.3,  999.0,  999.0,  999.0,  999.0,  999.0,  999.0,  999.0,  999.0,  999.0,  999.0,  999.0,  999.0,  999.0
2000/03/04 00:30,    0.1,    0.2,    0.1,  999.0,  999.0,   -0.0,   -0.1,  999.0,  999.0,  999.0,    0.0,    0.0,   -0.2,   -0.6,   -0.7,   -0.6,   -0.4,   -0.8,   -0.8,   -0.8,   -0.7,   -0.6,   -0.6,   -0.6,   -0.5,   -0.5,   -0.7,   -0.5,  999.0,  999.0,  999.0,  999.0,  999.0,  999.0,  999.0,  999.0,  999.0,  999.0,  999.0,  999.0,  999.0,  999.0,  999.0,  999.0,  999.0,  999.0
2000/03/04 00:40,  999.0,  999.0,   -0.1,    0.1,   -0.0,  999.0,  999.0,   -0.0,  999.0,  999.0,    0.1,   -0.7,   -0.8,   -0.9,   -0.8,   -0.8,   -0.7,   -0.5,   -0.5,   -0.4,   -0.4,   -0.4,  999.0,  999.0,  999.0,   -0.5,  999.0,  999.0,  999.0,  999.0,  999.0,  999.0,  999.0,  999.0,  999.0,  999.0,  999.0,  999.0,  999.0,  999.0,  999.0,  999.0,  999.0,  999.0,  999.0,  999.0
2000/03/04 00:50,   -0.0,    0.1,  999.0,    0.4,    0.2,  999.0,    0.2,  999.0,    0.3,  999.0,    0.2,   -0.4,   -0.7,   -0.7,   -0.5,   -0.5,   -0.6,   -0.4,   -0.2,  999.0,  999.0,  999.0,  999.0,  999.0,  999.0,  999.0,  999.0,  999.0,  999.0,  999.0,  999.0,  999.0,  999.0,  999.0,  999.0,  999.0,  999.0,  999.0,  999.0,  999.0,  999.0,  999.0,  999.0,  999.0,  999.0,  999.0
2000/03/04 01:00,   -0.1,    0.1,  999.0,    0.2,  999.0,  999.0,  999.0,  999.0,  999.0,  999.0,    0.2,   -0.4,   -0.5,   -0.6,   -0.3,   -0.7,   -0.7,   -0.6,   -0.6,   -0.8,   -0.8,   -0.8,   -0.7,   -0.6,   -0.6,   -0.6,   -0.4,   -0.5,   -0.5,   -0.6,   -0.4,   -0.5,  999.0,   -0.2,  999.0,  999.0,  999.0,  999.0,  999.0,  999.0,  999.0,  999.0,  999.0,  999.0,  999.0,  999.0
2000/03/04 01:10,   -0.1,  999.0,    0.2,  999.0,    0.0,  999.0,  999.0,    0.1,    0.1,    0.0,   -0.0,   -0.3,   -0.7,   -0.7,   -0.9,   -1.0,   -1.1,   -1.0,   -0.9,   -0.9,   -0.8,   -0.9,   -0.9,   -0.8,   -0.8,   -0.7,   -0.8,   -0.7,   -0.6,   -0.6,   -0.5,   -0.4,  999.0,   -0.3,  999.0,  999.0,  999.0,  999.0,  999.0,  999.0,  999.0,  999.0,  999.0,  999.0,  999.0,  999.0
2000/03/04 01:20,   -0.1,    0.0,    0.1,    0.3,    0.2,    0.2,  999.0,   -0.0,    0.2,   -0.0,  999.0,   -0.7,   -0.8,   -0.8,   -0.8,   -0.8,   -0.8,   -0.8,   -0.7,   -0.6,   -0.5,   -0.7,   -0.9,   -0.7,   -0.7,   -0.6,   -0.6,   -0.6,   -0.6,   -0.4,   -0.4,   -0.2,   -0.4,  999.0,  999.0,  999.0,  999.0,  999.0,  999.0,  999.0,  999.0,  999.0,  999.0,  999.0,  999.0,  999.0
2000/03/04 01:30,    0.0,    0.0,  999.0,    0.2,    0.2,  999.0,  999.0,  999.0,  999.0,  999.0,  999.0,   -0.7,   -0.8,   -0.7,   -0.7,   -0.8,   -0.8,   -0.7,   -0.7,   -0.6,   -0.7,   -0.6,   -0.5,   -0.5,   -0.6,   -0.6,   -0.6,   -0.5,   -0.5,   -0.4,   -0.4,  999.0,  999.0,  999.0,  999.0,  999.0,  999.0,  999.0,  999.0,  999.0,  999.0,  999.0,  999.0,  999.0,  999.0,  999.0
2000/03/04 01:40,   -0.1,   -0.1,  999.0,    0.1,  999.0,    0.2,  999.0,  999.0,  999.0,  999.0,  999.0,   -1.0,   -1.0,   -1.0,   -1.0,   -0.9,   -0.9,   -0.9,   -0.8,   -0.7,   -0.7,   -0.7,   -0.6,   -0.6,   -0.6,   -0.6,   -0.7,   -0.7,   -0.6,   -0.6,   -0.6,  999.0,  999.0,  999.0,  999.0,  999.0,  999.0,  999.0,  999.0,  999.0,  999.0,  999.0,  999.0,  999.0,  999.0,  999.0
2000/03/04 01:50,  999.0,  999.0,  999.0,  999.0,  999.0,  999.0,  999.0,  999.0,    0.1,    0.1,   -0.7,   -1.0,   -1.1,   -1.1,   -1.1,   -1.1,   -1.1,   -1.0,   -0.9,   -0.8,   -0.7,   -0.6,   -0.6,   -0.7,   -0.6,   -0.7,   -0.7,   -0.6,   -0.6,   -0.6,   -0.6,   -0.5,   -0.5,  999.0,  999.0,  999.0,  999.0,  999.0,  999.0,  999.0,  999.0,  999.0,  999.0,  999.0,  999.0,  999.0
2000/03/04 02:00,   -0.1,  999.0,  999.0,  999.0,  999.0,  999.0,  999.0,    0.1,    0.2,   -0.8,   -0.9,   -1.0,   -1.1,   -1.0,   -1.0,   -1.0,   -0.9,   -0.9,   -0.8,   -0.8,   -0.8,   -0.8,   -0.9,   -0.8,   -0.8,   -0.7,   -0.6,   -0.6,   -0.5,   -0.5,   -0.5,   -0.5,   -0.5,  999.0,  999.0,  999.0,  999.0,  999.0,  999.0,  999.0,  999.0,  999.0,  999.0,  999.0,  999.0,  999.0
2000/03/04 02:10,   -0.0,   -0.0,    0.1,    0.3,   -0.0,    0.5,    0.3,    0.3,   -0.2,   -0.9,   -0.9,   -1.1,   -0.9,   -0.9,   -0.9,   -0.8,   -0.8,   -0.8,   -0.8,   -0.8,   -0.8,   -0.9,   -0.9,   -0.8,   -0.7,   -0.6,   -0.6,   -0.5,   -0.5,   -0.5,   -0.5,   -0.4,   -0.3,   -0.3,   -0.2,  999.0,  999.0,  999.0,  999.0,  999.0,  999.0,  999.0,  999.0,  999.0,  999.0,  999.0
2000/03/04 02:20,    0.1,    0.0,    0.0,    0.2,   -0.1,  999.0,   -0.1,   -0.2,   -0.3,   -0.9,   -1.0,   -1.0,   -0.9,   -0.9,   -0.9,   -0.9,   -0.9,   -0.9,   -0.9,   -0.9,   -0.9,   -0.8,   -0.7,   -0.6,   -0.6,   -0.5,   -0.5,   -0.5,   -0.5,   -0.5,   -0.5,   -0.4,   -0.4,   -0.3,  999.0,  999.0,  999.0,  999.0,  999.0,  999.0,  999.0,  999.0,  999.0,  999.0,  999.0,  999.0
2000/03/04 02:30,   -0.3,    0.0,    0.3,    0.2,   -0.0,  999.0,  999.0,  999.0,   -0.6,   -0.7,   -1.0,   -0.9,   -0.8,   -0.8,   -0.8,   -0.8,   -0.8,   -0.8,   -0.7,   -0.7,   -0.8,   -0.7,   -0.6,   -0.6,   -0.6,   -0.6,   -0.5,   -0.5,   -0.5,   -0.5,   -0.4,   -0.4,   -0.4,   -0.5,  999.0,  999.0,  999.0,  999.0,  999.0,  999.0,  999.0,  999.0,  999.0,  999.0,  999.0,  999.0
2000/03/04 02:40,  999.0,    0.1,    0.2,  999.0,    0.3,   -0.2,  999.0,  999.0,   -0.1,   -0.4,   -0.9,   -1.0,   -0.9,   -0.8,   -0.9,   -0.9,   -0.8,   -0.7,   -0.7,   -0.8,   -0.7,   -0.8,   -0.8,   -0.7,   -0.6,   -0.6,   -0.4,   -0.4,   -0.3,   -0.2,   -0.4,   -0.4,   -0.4,   -0.4,  999.0,  999.0,  999.0,  999.0,  999.0,  999.0,  999.0,  999.0,  999.0,  999.0,  999.0,  999.0
2000/03/04 02:50,  999.0,    0.1,  999.0,    0.3,    0.2,    0.2,    0.1,   -0.3,   -1.0,   -1.0,   -1.0,   -1.0,   -1.0,   -0.9,   -0.9,   -0.8,   -0.8,   -0.8,   -0.7,   -0.8,   -0.7,   -0.7,   -0.7,   -0.7,   -0.6,   -0.6,   -0.5,   -0.3,   -0.4,   -0.4,   -0.3,   -0.2,   -0.2,   -0.3,  999.0,  999.0,  999.0,  999.0,  999.0,  999.0,  999.0,  999.0,  999.0,  999.0,  999.0,  999.0
2000/03/04 03:00,  999.0,  999.0,  999.0,  999.0,  999.0,    0.1,   -0.0,  999.0,   -1.3,   -1.2,   -1.3,   -1.1,   -1.1,   -1.1,   -1.0,   -0.9,   -0.9,   -0.9,   -0.9,   -0.8,   -0.7,   -0.6,   -0.6,   -0.6,   -0.6,   -0.7,   -0.6,   -0.6,   -0.4,   -0.3,  999.0,  999.0,  999.0,  999.0,  999.0,  999.0,  999.0,  999.0,  999.0,  999.0,  999.0,  999.0,  999.0,  999.0,  999.0,  999.0
2000/03/04 03:10,  999.0,  999.0,  999.0,  999.0,    0.3,    0.5,    0.7,    0.7,  999.0,   -1.1,   -0.8,   -0.9,   -1.0,   -1.0,   -1.0,   -0.9,   -0.8,   -0.8,   -0.7,   -0.6,   -0.6,   -0.6,   -0.6,   -0.6,   -0.6,   -0.6,   -0.6,   -0.6,   -0.5,   -0.4,   -0.4,   -0.2,  999.0,  999.0,  999.0,  999.0,  999.0,  999.0,  999.0,  999.0,  999.0,  999.0,  999.0,  999.0,  999.0,  999.0
2000/03/04 03:20,  999.0,  999.0,   -0.1,  999.0,  999.0,  999.0,  999.0,    0.1,   -0.6,  999.0,   -0.9,   -1.4,   -1.4,   -1.2,   -1.1,   -0.9,   -0.8,   -0.7,   -0.8,   -0.7,   -0.7,   -0.7,   -0.6,   -0.6,   -0.6,   -0.6,   -0.6,   -0.6,   -0.5,   -0.5,   -0.4,   -0.5,  999.0,  999.0,  999.0,  999.0,  999.0,  999.0,  999.0,  999.0,  999.0,  999.0,  999.0,  999.0,  999.0,  999.0
2000/03/04 03:30,    0.2,    0.2,    0.3,    0.2,    0.3,    0.1,   -0.0,   -0.3,   -0.8,   -1.1,   -1.4,   -1.2,   -1.0,   -1.0,   -1.0,   -0.9,   -0.9,   -0.9,   -1.0,   -1.0,   -0.9,   -0.8,   -0.7,   -0.7,   -0.7,   -0.6,   -0.6,   -0.6,   -0.6,   -0.5,   -0.5,   -0.4,   -0.4,  999.0,  999.0,  999.0,  999.0,  999.0,  999.0,  999.0,  999.0,  999.0,  999.0,  999.0,  999.0,  999.0
2000/03/04 03:40,   -0.1,   -1.2,   -0.1,   -2.1,   -0.2,   -0.4,    0.1,   -0.9,   -1.1,   -1.4,   -1.1,   -1.2,  999.0,   -1.1,   -1.1,   -1.1,   -1.1,   -1.1,   -1.1,   -0.9,   -0.8,   -0.7,   -0.7,   -0.6,   -0.6,   -0.5,   -0.4,   -0.4,   -0.4,  999.0,  999.0,  999.0,  999.0,  999.0,  999.0,  999.0,  999.0,  999.0,  999.0,  999.0,  999.0,  999.0,  999.0,  999.0,  999.0,  999.0
2000/03/04 03:50,  999.0,  999.0,   -3.9,   -4.1,   -3.2,   -1.7,   -0.5,   -1.2,   -1.3,   -1.3,   -1.3,   -1.2,   -1.0,   -0.9,   -0.9,   -0.9,   -0.8,   -0.8,   -0.8,   -0.6,   -0.7,   -0.8,   -0.8,   -0.6,   -0.5,   -0.5,   -0.5,   -0.6,   -0.5,   -0.7,   -0.6,   -0.7,   -0.5,   -0.3,  999.0,  999.0,  999.0,  999.0,  999.0,  999.0,  999.0,  999.0,  999.0,  999.0,  999.0,  999.0
2000/03/04 04:00,   -0.1,    0.1,  999.0,  999.0,   -2.0,   -1.0,   -0.9,   -1.0,   -1.2,   -1.1,   -1.2,   -1.2,   -1.0,   -1.1,   -1.1,   -1.1,   -1.2,   -1.1,   -0.9,   -0.9,   -1.0,   -0.9,   -1.0,   -1.0,   -0.8,   -0.8,   -0.7,   -0.7,   -0.6,   -0.6,   -0.6,   -0.6,   -0.4,   -0.4,  999.0,   -0.5,  999.0,  999.0,  999.0,  999.0,  999.0,  999.0,  999.0,  999.0,  999.0,  999.0
2000/03/04 04:10,    0.1,    0.2,  999.0,   -4.7,  999.0,  999.0,  999.0,  999.0,  999.0,   -1.4,   -1.3,   -1.4,   -1.3,   -1.2,   -1.2,   -1.4,   -1.3,   -1.3,   -1.3,   -1.2,   -1.2,   -1.2,   -1.2,   -1.1,   -1.0,   -1.0,   -0.9,   -0.8,   -0.7,   -0.7,   -0.7,   -0.6,   -0.8,   -0.6,  999.0,   -0.2,  999.0,  999.0,  999.0,  999.0,  999.0,  999.0,  999.0,  999.0,  999.0,  999.0
2000/03/04 04:20,   -2.2,   -2.9,   -4.0,   -4.0,   -3.3,   -1.1,  999.0,   -1.1,   -1.2,   -1.3,   -1.2,   -1.2,   -1.0,   -1.0,   -1.1,   -1.2,   -1.2,   -1.2,   -1.1,   -1.0,   -1.0,   -1.0,   -1.0,   -1.1,   -1.0,   -0.9,   -0.7,   -0.6,   -0.5,   -0.4,   -0.5,   -0.4,   -0.5,  999.0,  999.0,  999.0,  999.0,  999.0,  999.0,  999.0,  999.0,  999.0,  999.0,  999.0,  999.0,  999.0
2000/03/04 04:30,   -5.7,   -5.6,   -5.7,   -5.6,   -2.7,   -1.3,   -1.3,   -1.3,   -1.3,   -1.2,   -1.3,   -1.2,   -1.1,   -1.1,   -1.1,   -1.1,   -1.0,   -1.0,   -1.0,   -1.0,   -0.9,   -0.9,   -0.8,   -0.6,   -0.6,   -0.5,   -0.5,   -0.6,   -0.4,   -0.4,  999.0,  999.0,  999.0,  999.0,  999.0,  999.0,  999.0,  999.0,  999.0,  999.0,  999.0,  999.0,  999.0,  999.0,  999.0,  999.0
2000/03/04 04:40,   -5.3,   -5.4,   -5.2,   -4.9,  999.0,   -1.1,   -1.2,   -1.3,  999.0,  999.0,   -1.1,   -1.0,   -1.0,   -0.9,   -0.9,   -1.0,   -1.1,   -1.0,   -1.0,   -0.8,   -0.9,   -0.9,   -0.9,   -0.8,   -0.9,   -0.8,   -0.7,   -0.7,   -0.4,   -0.4,   -0.2,  999.0,  999.0,  999.0,  999.0,  999.0,  999.0,  999.0,  999.0,  999.0,  999.0,  999.0,  999.0,  999.0,  999.0,  999.0
2000/03/04 04:50,   -6.8,   -6.7,   -6.6,   -5.4,  999.0,  999.0,   -1.1,   -1.2,   -1.3,   -1.3,   -1.1,   -1.1,   -1.0,   -1.0,   -1.1,   -1.0,   -0.9,   -0.8,   -0.8,   -0.6,   -0.6,   -0.6,   -0.6,   -0.6,   -0.7,   -0.7,   -0.8,   -0.5,   -0.4,   -0.0,  999.0,  999.0,  999.0,  999.0,  999.0,  999.0,  999.0,  999.0,  999.0,  999.0,  999.0,  999.0,  999.0,  999.0,  999.0,  999.0
2000/03/04 05:00,   -4.5,   -4.2,   -3.9,   -3.7,   -1.4,   -1.0,   -1.4,   -1.4,   -1.3,   -1.2,   -1.3,   -1.3,   -1.3,   -1.3,   -1.2,   -1.0,   -0.9,   -0.8,   -0.7,   -0.6,   -0.6,   -0.6,   -0.6,   -0.4,   -0.2,   -0.3,   -0.1,  999.0,  999.0,  999.0,   -0.0,  999.0,  999.0,  999.0,  999.0,  999.0,  999.0,  999.0,  999.0,  999.0,  999.0,  999.0,  999.0,  999.0,  999.0,  999.0
2000/03/04 05:10,   -5.8,   -5.4,   -5.3,   -5.0,   -1.9,   -1.6,   -1.5,  999.0,   -1.3,   -1.1,   -1.4,   -1.4,   -1.4,   -1.3,   -1.1,   -1.0,   -0.9,   -1.0,   -0.8,   -0.6,   -0.4,   -0.5,   -0.4,   -0.6,   -0.6,   -0.5,   -0.6,   -0.2,   -0.2,   -0.1,  999.0,  999.0,  999.0,  999.0,  999.0,  999.0,  999.0,  999.0,  999.0,  999.0,  999.0,  999.0,  999.0,  999.0,  999.0,  999.0
2000/03/04 05:20,   -5.3,   -5.4,   -5.6,   -5.6,  999.0,  999.0,   -1.7,   -1.5,   -1.3,   -1.4,   -1.3,   -1.3,   -1.3,   -1.2,  999.0,   -1.1,   -0.9,   -0.8,   -0.3,   -0.2,   -0.5,   -0.5,   -0.5,   -0.5,   -0.4,   -0.2,   -0.3,   -0.2,    0.0,  999.0,  999.0,  999.0,  999.0,  999.0,  999.0,  999.0,  999.0,  999.0,  999.0,  999.0,  999.0,  999.0,  999.0,  999.0,  999.0,  999.0
2000/03/04 05:30,   -5.6,   -5.5,   -5.5,   -5.3,   -3.4,  999.0,   -1.6,   -1.4,   -1.4,   -1.7,   -1.3,   -1.3,   -1.2,   -1.1,   -0.9,   -1.2,   -0.9,   -0.6,   -0.5,   -0.4,   -0.2,   -0.1,   -0.2,   -0.3,   -0.3,   -0.6,   -0.2,  999.0,    0.0,  999.0,  999.0,  999.0,  999.0,  999.0,  999.0,  999.0,  999.0,  999.0,  999.0,  999.0,  999.0,  999.0,  999.0,  999.0,  999.0,  999.0
2000/03/04 05:40,   -3.4,   -3.2,   -3.1,   -3.3,   -2.9,   -2.3,   -1.2,   -1.5,   -1.4,   -1.6,   -1.4,   -1.3,   -1.2,   -1.0,   -1.0,   -0.9,   -0.9,   -0.8,   -0.9,   -0.7,   -0.7,   -0.7,   -0.8,   -0.5,   -0.4,   -0.5,  999.0,   -0.1,    0.0,  999.0,  999.0,  999.0,  999.0,  999.0,  999.0,  999.0,  999.0,  999.0,  999.0,  999.0,  999.0,  999.0,  999.0,  999.0,  999.0,  999.0
2000/03/04 05:50,   -4.1,   -3.6,   -4.0,   -4.1,   -3.8,   -2.6,   -1.5,   -1.3,   -1.3,   -1.8,   -1.7,   -1.6,   -1.4,   -1.4,   -1.3,   -1.2,   -1.2,   -1.0,   -0.9,   -0.9,   -0.8,   -1.0,   -0.8,   -1.0,   -0.6,   -0.5,   -0.4,   -0.1,  999.0,  999.0,  999.0,  999.0,  999.0,  999.0,  999.0,  999.0,  999.0,  999.0,  999.0,  999.0,  999.0,  999.0,  999.0,  999.0,  999.0,  999.0
2000/03/04 06:00,   -3.8,   -2.5,   -3.0,   -2.2,   -2.5,   -2.4,   -1.5,   -1.5,   -1.4,   -1.7,   -1.5,   -1.8,   -1.7,   -1.5,   -1.1,   -1.2,   -0.9,   -0.6,   -0.5,   -0.1,   -0.1,  999.0,  999.0,  999.0,  999.0,  999.0,  999.0,  999.0,  999.0,  999.0,  999.0,  999.0,  999.0,  999.0,  999.0,  999.0,  999.0,  999.0,  999.0,  999.0,  999.0,  999.0,  999.0,  999.0,  999.0,  999.0
2000/03/04 06:10,   -3.2,   -2.7,   -2.1,   -2.1,   -1.9,   -1.7,   -1.4,   -1.3,   -1.2,   -0.8,   -0.6,   -0.2,   -0.1,    0.0,    0.1,    0.2,    0.1,   -0.0,    0.1,    0.1,    0.5,    0.1,   -0.0,  999.0,  999.0,  999.0,  999.0,   -0.0,  999.0,  999.0,  999.0,  999.0,  999.0,  999.0,  999.0,  999.0,  999.0,  999.0,  999.0,  999.0,  999.0,  999.0,  999.0,  999.0,  999.0,  999.0
2000/03/04 06:20,   -2.1,  999.0,   -0.9,   -1.4,   -1.6,   -1.3,   -1.4,   -1.2,   -1.6,   -1.6,   -1.3,   -1.1,   -0.9,   -0.6,   -0.5,   -0.5,   -0.4,   -0.2,   -0.1,    0.1,  999.0,    0.2,  999.0,  999.0,    0.0,  999.0,  999.0,  999.0,  999.0,  999.0,  999.0,  999.0,  999.0,  999.0,  999.0,  999.0,  999.0,  999.0,  999.0,  999.0,  999.0,  999.0,  999.0,  999.0,  999.0,  999.0
2000/03/04 06:30,   -2.1,   -1.5,   -1.5,   -1.3,   -1.2,   -0.8,   -1.1,   -1.1,   -1.1,   -1.1,   -1.0,   -0.8,   -0.6,   -0.6,   -0.6,   -0.6,   -0.4,   -0.5,   -0.3,   -0.1,    0.0,  999.0,    0.1,  999.0,   -0.2,  999.0,  999.0,  999.0,  999.0,  999.0,  999.0,  999.0,  999.0,  999.0,  999.0,  999.0,  999.0,  999.0,  999.0,  999.0,  999.0,  999.0,  999.0,  999.0,  999.0,  999.0
2000/03/04 06:40,   -1.9,  999.0,   -1.2,   -1.1,   -0.8,   -0.6,   -0.9,   -0.5,   -0.4,   -0.2,   -0.2,   -0.1,   -0.1,   -0.1,   -0.1,   -0.0,   -0.4,   -0.3,   -0.2,    0.0,  999.0,  999.0,  999.0,  999.0,  999.0,  999.0,  999.0,  999.0,  999.0,  999.0,  999.0,  999.0,  999.0,  999.0,  999.0,  999.0,  999.0,  999.0,  999.0,  999.0,  999.0,  999.0,  999.0,  999.0,  999.0,  999.0
2000/03/04 06:50,  999.0,   -1.6,   -1.6,   -1.5,   -1.0,   -0.8,   -0.6,   -0.2,   -0.1,   -0.3,   -0.0,   -0.0,   -0.0,   -0.1,   -0.1,   -0.2,   -0.1,   -0.1,   -0.2,   -0.0,  999.0,   -0.1,   -0.3,  999.0,  999.0,  999.0,  999.0,  999.0,  999.0,  999.0,  999.0,  999.0,  999.0,  999.0,  999.0,  999.0,  999.0,  999.0,  999.0,  999.0,  999.0,  999.0,  999.0,  999.0,  999.0,  999.0
2000/03/04 07:00,  999.0,   -1.7,   -2.4,   -2.4,   -2.2,   -1.7,   -1.3,   -0.8,   -0.8,   -0.8,   -0.8,   -0.5,   -0.6,   -0.5,   -0.6,   -0.3,   -0.4,   -0.5,   -0.5,   -0.1,   -0.2,   -0.0,  999.0,  999.0,  999.0,  999.0,  999.0,  999.0,   -0.4,  999.0,  999.0,  999.0,  999.0,  999.0,  999.0,  999.0,  999.0,  999.0,  999.0,  999.0,  999.0,  999.0,  999.0,  999.0,  999.0,  999.0
2000/03/04 07:10,   -4.1,   -4.4,   -4.9,   -5.2,   -5.3,   -4.8,   -2.7,   -2.1,   -2.1,   -1.7,   -1.5,   -1.1,   -1.1,   -1.2,   -1.3,   -1.3,   -1.2,   -0.9,   -0.9,   -0.7,   -0.4,   -0.5,  999.0,  999.0,  999.0,  999.0,  999.0,  999.0,  999.0,  999.0,  999.0,  999.0,  999.0,  999.0,  999.0,  999.0,  999.0,  999.0,  999.0,  999.0,  999.0,  999.0,  999.0,  999.0,  999.0,  999.0
2000/03/04 07:20,   -4.8,   -3.7,   -4.9,   -4.8,   -4.4,   -4.7,   -3.2,   -2.0,   -1.4,   -1.2,   -1.2,   -1.1,   -1.0,   -1.2,   -1.2,   -1.1,   -1.1,   -1.0,   -0.9,   -0.7,   -0.5,  999.0,  999.0,  999.0,  999.0,  999.0,  999.0,  999.0,  999.0,  999.0,  999.0,  999.0,  999.0,  999.0,  999.0,  999.0,  999.0,  999.0,  999.0,  999.0,  999.0,  999.0,  999.0,  999.0,  999.0,  999.0
2000/03/04 07:30,   -4.5,   -4.2,   -4.9,   -4.9,   -4.4,   -4.3,   -2.8,   -1.8,   -1.3,   -1.2,   -1.0,   -0.9,   -0.9,   -0.8,   -0.7,   -0.8,   -1.0,   -0.9,   -0.5,   -0.3,   -0.2,  999.0,  999.0,  999.0,  999.0,  999.0,  999.0,   -0.1,   -0.2,  999.0,  999.0,  999.0,  999.0,  999.0,  999.0,  999.0,  999.0,  999.0,  999.0,  999.0,  999.0,  999.0,  999.0,  999.0,  999.0,  999.0
2000/03/04 07:40,   -4.6,   -3.6,   -3.5,   -3.3,   -3.0,   -3.1,   -2.1,   -1.2,   -0.9,   -0.8,   -0.7,   -0.7,   -0.6,   -0.4,   -0.3,   -0.3,   -0.3,   -0.3,   -0.5,   -0.4,   -0.2,   -0.5,   -0.9,   -0.9,   -0.7,   -0.7,   -0.6,   -0.4,  999.0,  999.0,  999.0,  999.0,  999.0,  999.0,  999.0,  999.0,  999.0,  999.0,  999.0,  999.0,  999.0,  999.0,  999.0,  999.0,  999.0,  999.0
2000/03/04 07:50,   -3.1,   -2.6,   -2.7,   -2.7,   -2.4,   -2.2,   -2.3,   -1.5,   -0.8,   -0.6,   -0.5,   -0.4,   -0.1,   -0.2,    0.0,    0.0,    0.1,   -0.0,    0.1,   -0.0,  999.0,  999.0,  999.0,  999.0,   -0.8,   -0.8,   -0.6,   -0.3,  999.0,  999.0,  999.0,  999.0,  999.0,  999.0,  999.0,  999.0,  999.0,  999.0,  999.0,  999.0,  999.0,  999.0,  999.0,  999.0,  999.0,  999.0
2000/03/04 08:00,   -2.5,   -2.3,   -1.8,   -1.5,   -0.8,   -0.8,   -0.6,   -0.2,   -0.4,   -0.1,   -0.1,   -0.0,   -0.0,   -0.0,   -0.1,   -0.1,   -0.1,   -0.1,  999.0,  999.0,  999.0,  999.0,   -0.8,   -0.8,   -0.7,   -0.6,   -0.5,   -0.3,    0.1,  999.0,  999.0,  999.0,  999.0,  999.0,  999.0,  999.0,  999.0,  999.0,  999.0,  999.0,  999.0,  999.0,  999.0,  999.0,  999.0,  999.0
2000/03/04 08:10,   -2.5,   -2.0,   -2.5,   -2.1,   -2.3,   -1.9,   -1.0,   -0.7,   -0.5,   -0.1,   -0.0,   -0.0,   -0.1,   -0.2,   -0.3,   -0.5,   -0.4,   -0.2,  999.0,  999.0,  999.0,   -0.8,  999.0,   -0.8,   -0.7,   -0.6,   -0.5,   -0.0,  999.0,  999.0,  999.0,  999.0,  999.0,   -0.4,  999.0,  999.0,  999.0,  999.0,  999.0,  999.0,  999.0,  999.0,  999.0,  999.0,  999.0,  999.0
2000/03/04 08:20,   -1.9,   -1.4,   -1.2,   -0.9,   -0.6,   -0.7,   -0.2,   -0.1,    0.2,    0.2,    0.1,   -0.1,   -0.1,   -0.2,   -0.1,   -0.3,   -0.3,  999.0,  999.0,  999.0,   -0.8,   -0.9,   -0.8,   -1.0,   -0.8,   -0.6,   -0.4,   -0.0,  999.0,  999.0,  999.0,  999.0,  999.0,  999.0,  999.0,  999.0,  999.0,  999.0,  999.0,  999.0,  999.0,  999.0,  999.0,  999.0,  999.0,  999.0
2000/03/04 08:30,   -2.4,   -2.6,   -2.6,   -2.3,   -2.1,   -1.7,   -2.2,   -1.7,   -1.6,   -1.2,   -0.6,   -0.5,   -0.4,   -0.5,   -0.2,   -0.3,   -0.3,   -0.1,  999.0,  999.0,   -0.8,   -0.8,   -0.8,   -0.8,   -0.7,   -0.5,   -0.2,  999.0,  999.0,  999.0,  999.0,  999.0,  999.0,  999.0,  999.0,  999.0,  999.0,  999.0,  999.0,  999.0,  999.0,  999.0,  999.0,  999.0,  999.0,  999.0
2000/03/04 08:40,   -2.8,   -2.3,   -2.4,   -2.1,   -2.0,   -2.2,   -2.2,   -2.0,   -1.5,   -1.2,   -1.1,   -0.8,   -0.5,   -0.6,   -0.3,   -0.3,   -0.2,   -0.4,   -0.7,   -0.3,   -0.6,   -0.8,   -0.4,   -0.6,  999.0,  999.0,  999.0,  999.0,  999.0,  999.0,  999.0,  999.0,  999.0,  999.0,  999.0,  999.0,  999.0,  999.0,  999.0,  999.0,  999.0,  999.0,  999.0,  999.0,  999.0,  999.0
2000/03/04 08:50,   -3.7,   -3.8,   -4.0,   -4.1,   -4.4,   -3.6,   -3.6,   -2.6,   -1.4,   -0.9,   -0.8,   -0.6,   -0.6,   -0.4,   -0.1,   -0.1,   -0.0,   -0.2,   -0.1,   -0.1,   -0.2,   -0.2,  999.0,  999.0,  999.0,  999.0,  999.0,  999.0,  999.0,  999.0,  999.0,  999.0,  999.0,  999.0,  999.0,  999.0,  999.0,  999.0,  999.0,  999.0,  999.0,  999.0,  999.0,  999.0,  999.0,  999.0
2000/03/04 09:00,   -4.3,   -3.4,   -3.3,   -3.5,   -5.3,   -5.6,   -4.3,   -3.6,   -1.7,   -1.1,   -0.9,   -0.8,   -0.5,   -0.2,   -0.2,   -0.1,   -0.0,   -0.2,   -0.3,   -0.1,   -0.1,    0.0,  999.0,  999.0,  999.0,  999.0,  999.0,  999.0,  999.0,  999.0,  999.0,  999.0,  999.0,  999.0,  999.0,  999.0,  999.0,  999.0,  999.0,  999.0,  999.0,  999.0,  999.0,  999.0,  999.0,  999.0
2000/03/04 09:10,   -2.1,   -2.0,   -2.0,   -2.0,   -1.4,   -1.3,   -1.5,   -1.6,   -1.5,   -0.8,   -0.6,   -0.6,   -0.5,   -0.3,   -0.2,   -0.4,   -0.4,   -0.2,  999.0,   -0.2,   -0.3,  999.0,  999.0,  999.0,  999.0,  999.0,  999.0,  999.0,  999.0,  999.0,  999.0,  999.0,  999.0,  999.0,  999.0,  999.0,  999.0,  999.0,  999.0,  999.0,  999.0,  999.0,  999.0,  999.0,  999.0,  999.0
2000/03/04 09:20,   -2.3,   -2.1,   -1.8,   -1.5,   -0.5,  999.0,  999.0,   -1.8,   -1.7,   -1.1,   -0.5,   -0.5,   -0.4,   -0.4,   -0.3,   -0.4,   -0.4,   -0.5,   -0.6,   -0.2,   -0.3,  999.0,   -0.5,   -0.8,   -0.7,   -0.7,   -0.6,   -0.6,  999.0,  999.0,  999.0,  999.0,  999.0,  999.0,  999.0,  999.0,  999.0,  999.0,  999.0,  999.0,  999.0,  999.0,  999.0,  999.0,  999.0,  999.0
2000/03/04 09:30,   -1.8,   -1.7,   -1.4,   -1.2,   -0.4,   -0.6,   -0.0,   -2.3,   -1.6,   -1.1,   -1.0,   -1.0,   -1.1,   -1.2,   -1.1,   -1.0,   -0.9,   -0.8,   -0.7,   -0.6,   -0.6,   -0.6,   -0.7,   -0.7,   -0.7,  999.0,  999.0,  999.0,  999.0,  999.0,  999.0,  999.0,  999.0,  999.0,  999.0,  999.0,  999.0,  999.0,  999.0,  999.0,  999.0,  999.0,  999.0,  999.0,  999.0,  999.0
2000/03/04 09:40,   -3.5,   -3.4,   -3.1,   -4.6,   -4.9,   -4.9,   -5.0,   -5.0,  999.0,   -1.9,   -1.7,   -1.8,   -1.8,   -1.6,   -1.5,   -1.3,   -1.2,   -1.1,   -1.0,   -0.9,   -0.9,   -0.5,   -0.7,   -0.8,   -0.7,  999.0,  999.0,  999.0,  999.0,  999.0,  999.0,  999.0,  999.0,  999.0,  999.0,  999.0,  999.0,  999.0,  999.0,  999.0,  999.0,  999.0,  999.0,  999.0,  999.0,  999.0
2000/03/04 09:50,   -6.1,   -6.1,   -6.3,   -6.6,   -6.6,   -6.9,   -6.8,   -5.7,  999.0,   -1.7,   -1.7,   -1.7,   -1.7,   -1.7,   -1.6,   -1.5,   -1.4,   -1.2,   -1.1,   -1.0,   -0.9,   -0.9,   -0.9,   -0.8,   -0.9,   -0.9,   -0.8,   -0.7,   -0.8,   -0.8,   -0.8,   -0.6,   -0.6,  999.0,  999.0,  999.0,  999.0,  999.0,  999.0,  999.0,  999.0,  999.0,  999.0,  999.0,  999.0,  999.0
2000/03/04 10:00,   -6.3,   -6.4,   -6.3,   -6.5,   -6.5,   -6.8,   -6.9,   -4.5,   -2.3,   -1.8,   -1.7,   -1.7,   -1.7,   -1.2,   -1.5,   -1.4,   -1.4,   -1.3,   -1.2,   -1.0,   -0.8,   -0.9,   -1.0,   -1.0,   -0.9,   -0.8,   -0.7,   -0.7,   -0.5,   -0.7,   -0.6,  999.0,  999.0,  999.0,  999.0,  999.0,  999.0,  999.0,  999.0,  999.0,  999.0,  999.0,  999.0,  999.0,  999.0,  999.0
2000/03/04 10:10,   -4.8,   -5.5,   -5.2,   -5.5,   -5.7,   -5.9,   -5.9,   -4.6,   -2.4,   -1.8,   -1.6,   -1.4,   -1.4,   -1.4,   -1.4,   -1.3,   -1.2,   -1.1,   -1.0,   -0.9,   -0.8,   -0.7,   -0.6,   -0.6,   -0.7,   -0.6,   -0.7,   -0.7,   -0.6,   -0.7,  999.0,  999.0,  999.0,  999.0,  999.0,  999.0,  999.0,  999.0,  999.0,  999.0,  999.0,  999.0,  999.0,  999.0,  999.0,  999.0
2000/03/04 10:20,   -6.4,   -6.6,   -6.3,   -6.3,   -6.0,   -6.0,   -6.2,   -3.9,   -1.9,   -1.5,   -1.4,   -1.2,   -1.2,   -1.1,   -1.0,   -1.0,   -1.0,   -1.0,   -1.0,   -1.1,   -1.0,   -0.9,   -0.8,   -0.8,   -0.9,   -0.6,   -0.6,   -0.3,  999.0,  999.0,  999.0,  999.0,  999.0,  999.0,  999.0,  999.0,  999.0,  999.0,  999.0,  999.0,  999.0,  999.0,  999.0,  999.0,  999.0,  999.0
2000/03/04 10:30,   -5.7,   -6.0,   -6.3,   -5.4,   -5.5,   -5.5,   -5.8,  999.0,  999.0,   -1.6,   -1.4,   -1.3,   -1.2,   -1.2,   -1.0,   -1.1,   -1.1,   -0.9,   -0.7,   -0.6,   -0.5,   -0.5,   -0.6,   -0.7,   -0.6,   -0.8,  999.0,  999.0,  999.0,  999.0,  999.0,  999.0,  999.0,  999.0,  999.0,  999.0,  999.0,  999.0,  999.0,  999.0,  999.0,  999.0,  999.0,  999.0,  999.0,  999.0
2000/03/04 10:40,   -5.0,   -4.6,   -4.5,   -4.2,   -3.9,   -3.9,   -3.9,   -3.4,   -1.7,   -1.3,   -1.3,   -1.1,   -1.2,   -1.2,   -1.1,   -1.1,   -1.0,   -0.9,   -0.8,   -0.8,   -0.8,   -0.7,   -0.7,   -0.6,   -0.7,   -0.7,   -0.5,  999.0,   -0.1,  999.0,  999.0,  999.0,  999.0,  999.0,  999.0,  999.0,  999.0,  999.0,  999.0,  999.0,  999.0,  999.0,  999.0,  999.0,  999.0,  999.0
2000/03/04 10:50,   -4.9,   -4.5,   -4.2,   -4.2,   -3.5,   -3.8,   -3.9,   -3.7,   -2.1,   -1.9,   -1.8,   -1.6,   -1.5,   -1.5,   -1.5,   -1.4,   -1.2,   -1.2,   -1.0,   -0.9,   -0.8,   -0.6,   -0.6,   -0.7,   -0.8,   -0.8,   -0.8,   -0.6,  999.0,  999.0,  999.0,  999.0,  999.0,  999.0,  999.0,  999.0,  999.0,  999.0,  999.0,  999.0,  999.0,  999.0,  999.0,  999.0,  999.0,  999.0
2000/03/04 11:00,   -4.9,   -4.7,   -4.6,   -4.4,   -4.4,   -4.5,   -4.5,   -3.6,   -2.2,   -1.7,   -1.5,   -1.5,   -1.5,   -1.5,   -1.4,   -1.3,   -1.2,   -1.1,   -1.1,   -1.0,   -0.9,   -0.9,   -0.9,   -1.0,   -0.9,   -0.8,   -0.7,   -0.5,  999.0,  999.0,  999.0,  999.0,  999.0,  999.0,  999.0,  999.0,  999.0,  999.0,  999.0,  999.0,  999.0,  999.0,  999.0,  999.0,  999.0,  999.0
2000/03/04 11:10,   -6.4,   -6.1,   -5.8,   -5.9,   -5.9,   -5.9,   -6.1,   -4.0,   -2.2,   -1.5,   -1.5,   -1.4,   -1.4,   -1.3,   -1.4,   -1.3,   -1.2,   -1.1,   -1.0,   -0.9,   -0.7,   -0.7,   -0.9,   -0.9,   -0.8,   -0.7,   -0.6,   -0.3,   -0.0,  999.0,  999.0,  999.0,  999.0,  999.0,  999.0,  999.0,  999.0,  999.0,  999.0,  999.0,  999.0,  999.0,  999.0,  999.0,  999.0,  999.0
2000/03/04 11:20,   -5.2,   -5.2,   -5.2,   -5.3,   -5.2,   -5.2,   -5.2,   -4.7,   -2.3,   -1.5,   -1.3,   -1.1,   -1.1,   -1.1,   -1.3,   -1.3,   -1.2,   -1.1,   -1.1,   -0.9,   -0.9,   -0.8,   -0.9,   -0.8,   -0.8,  999.0,  999.0,  999.0,  999.0,  999.0,  999.0,  999.0,  999.0,  999.0,  999.0,  999.0,  999.0,  999.0,  999.0,  999.0,  999.0,  999.0,  999.0,  999.0,  999.0,  999.0
2000/03/04 11:30,   -5.5,   -5.4,   -5.5,   -5.8,   -5.9,   -6.0,   -5.9,   -5.6,   -2.2,   -1.4,   -1.4,   -1.3,   -1.2,   -1.2,   -1.2,   -1.2,   -1.1,   -1.1,   -1.0,   -0.8,   -0.8,   -0.7,   -0.6,   -0.8,  999.0,  999.0,  999.0,   -0.4,  999.0,  999.0,  999.0,  999.0,  999.0,  999.0,  999.0,  999.0,  999.0,  999.0,  999.0,  999.0,  999.0,  999.0,  999.0,  999.0,  999.0,  999.0
2000/03/04 11:40,   -5.8,   -5.5,   -6.0,   -5.2,   -5.2,   -5.2,   -5.3,   -3.5,   -2.0,   -1.5,   -1.3,   -1.1,   -1.0,   -1.1,   -1.3,   -1.2,   -1.1,   -0.8,   -0.8,   -0.6,   -0.4,   -0.5,   -0.2,   -0.2,  999.0,  999.0,  999.0,  999.0,  999.0,  999.0,  999.0,  999.0,  999.0,  999.0,  999.0,  999.0,  999.0,  999.0,  999.0,  999.0,  999.0,  999.0,  999.0,  999.0,  999.0,  999.0
2000/03/04 11:50,  999.0,   -3.2,   -3.3,   -3.1,   -3.7,   -4.2,   -4.3,   -4.4,   -2.5,   -1.7,   -1.6,   -1.4,   -1.5,   -1.4,   -1.3,   -1.2,   -1.2,   -1.0,   -1.0,   -0.9,   -0.5,   -0.6,   -0.4,   -0.6,   -0.3,   -0.1,   -0.2,  999.0,  999.0,  999.0,  999.0,  999.0,  999.0,  999.0,  999.0,  999.0,  999.0,  999.0,  999.0,  999.0,  999.0,  999.0,  999.0,  999.0,  999.0,  999.0
2000/03/04 12:00,   -3.5,   -2.6,   -2.6,   -3.3,   -3.2,   -3.7,   -4.2,   -4.3,   -2.4,   -1.6,   -1.4,   -1.2,   -1.2,   -1.3,   -1.2,   -1.2,   -1.1,   -1.0,   -1.0,   -0.8,   -0.7,   -0.5,   -0.4,   -0.4,   -0.2,   -0.2,   -0.0,  999.0,  999.0,  999.0,  999.0,  999.0,  999.0,  999.0,  999.0,  999.0,  999.0,  999.0,  999.0,  999.0,  999.0,  999.0,  999.0,  999.0,  999.0,  999.0
2000/03/04 12:10,   -5.6,   -5.3,   -5.2,   -5.3,   -5.4,   -5.0,   -4.9,   -4.9,   -3.0,   -1.6,   -1.4,   -1.3,   -1.2,   -1.3,   -1.3,   -1.3,   -1.3,   -1.1,   -0.9,   -0.7,   -0.5,   -0.2,   -0.1,  999.0,  999.0,  999.0,  999.0,  999.0,  999.0,  999.0,  999.0,  999.0,  999.0,  999.0,  999.0,  999.0,  999.0,  999.0,  999.0,  999.0,  999.0,  999.0,  999.0,  999.0,  999.0,  999.0
2000/03/04 12:20,   -4.8,   -4.7,   -4.6,   -4.8,   -5.0,   -5.0,   -4.9,   -4.7,   -2.3,   -1.4,   -1.3,   -1.3,   -1.3,   -1.4,   -1.4,   -1.4,   -1.3,   -1.3,   -1.0,   -0.7,   -0.5,   -0.3,  999.0,  999.0,  999.0,  999.0,  999.0,  999.0,  999.0,  999.0,  999.0,  999.0,  999.0,  999.0,  999.0,  999.0,  999.0,  999.0,  999.0,  999.0,  999.0,  999.0,  999.0,  999.0,  999.0,  999.0
2000/03/04 12:30,   -4.9,   -4.8,   -4.4,   -4.2,   -4.2,   -4.3,   -4.3,   -4.4,   -3.3,   -1.8,   -1.4,   -1.2,   -1.0,   -0.8,   -0.8,   -0.6,   -0.5,   -0.4,   -0.2,  999.0,  999.0,  999.0,  999.0,  999.0,  999.0,  999.0,  999.0,  999.0,  999.0,  999.0,  999.0,  999.0,  999.0,  999.0,  999.0,  999.0,  999.0,  999.0,  999.0,  999.0,  999.0,  999.0,  999.0,  999.0,  999.0,  999.0
2000/03/04 12:40,   -4.3,   -4.1,   -4.3,   -4.3,   -4.3,   -4.2,   -3.7,   -3.8,   -2.9,   -1.6,   -1.0,   -0.7,   -0.8,   -0.4,   -0.4,   -0.4,   -0.4,   -0.2,   -0.1,  999.0,  999.0,    0.0,  999.0,  999.0,  999.0,  999.0,  999.0,  999.0,  999.0,  999.0,  999.0,  999.0,  999.0,  999.0,  999.0,  999.0,  999.0,  999.0,  999.0,  999.0,  999.0,  999.0,  999.0,  999.0,  999.0,  999.0
2000/03/04 12:50,   -5.4,   -5.0,   -4.9,   -4.8,   -5.0,   -5.1,   -5.2,   -5.1,   -3.5,   -1.9,   -1.5,   -1.2,   -1.0,   -0.9,   -0.9,   -0.9,   -0.7,   -0.5,   -0.7,   -0.4,   -0.4,   -0.2,   -0.2,  999.0,  999.0,  999.0,  999.0,  999.0,  999.0,  999.0,  999.0,  999.0,  999.0,  999.0,  999.0,  999.0,  999.0,  999.0,  999.0,  999.0,  999.0,  999.0,  999.0,  999.0,  999.0,  999.0
2000/03/04 13:00,   -4.6,   -5.3,   -5.3,   -5.1,   -4.9,   -5.1,   -5.1,   -5.6,   -3.8,   -1.9,   -1.3,   -1.2,   -1.0,   -0.9,   -1.0,  999.0,   -1.1,   -1.1,   -0.7,   -0.7,   -0.4,   -0.1,   -0.2,   -0.2,  999.0,  999.0,  999.0,  999.0,  999.0,  999.0,  999.0,  999.0,  999.0,  999.0,  999.0,  999.0,  999.0,  999.0,  999.0,  999.0,  999.0,  999.0,  999.0,  999.0,  999.0,  999.0
2000/03/04 13:10,   -3.2,   -3.4,   -2.8,   -2.1,   -3.0,   -2.8,   -3.3,   -3.4,   -3.4,   -1.7,   -1.5,   -1.2,   -1.0,   -0.9,   -1.1,   -0.9,   -0.9,   -0.8,   -0.8,   -0.7,   -0.7,   -0.7,   -0.6,   -0.7,   -0.6,  999.0,  999.0,  999.0,  999.0,  999.0,  999.0,  999.0,  999.0,  999.0,  999.0,  999.0,  999.0,  999.0,  999.0,  999.0,  999.0,  999.0,  999.0,  999.0,  999.0,  999.0
2000/03/04 13:20,   -4.3,   -3.6,   -4.1,   -4.5,   -4.1,   -4.3,   -4.2,   -4.0,   -3.4,   -1.9,   -1.6,   -1.4,   -1.4,   -1.3,   -1.2,   -1.2,   -1.1,   -0.9,   -0.8,   -0.8,   -0.6,   -0.3,   -0.1,  999.0,  999.0,  999.0,  999.0,  999.0,  999.0,  999.0,  999.0,  999.0,  999.0,  999.0,  999.0,  999.0,  999.0,  999.0,  999.0,  999.0,  999.0,  999.0,  999.0,  999.0,  999.0,  999.0
2000/03/04 13:30,   -5.4,   -5.2,   -5.6,   -5.2,   -5.1,   -5.1,   -5.2,   -4.9,   -3.9,   -2.6,   -2.0,   -1.8,   -1.6,   -1.4,   -1.4,   -1.0,   -0.9,   -0.9,   -0.5,   -0.4,   -0.5,   -0.6,   -0.5,  999.0,  999.0,  999.0,  999.0,  999.0,  999.0,  999.0,  999.0,  999.0,  999.0,  999.0,  999.0,  999.0,  999.0,  999.0,  999.0,  999.0,  999.0,  999.0,  999.0,  999.0,  999.0,  999.0
2000/03/04 13:40,   -5.1,   -5.3,   -4.7,   -4.8,   -4.8,   -4.6,   -4.5,   -4.3,   -3.5,   -2.2,   -1.6,   -1.6,   -1.3,   -1.0,   -0.8,   -0.8,   -0.6,   -0.5,   -0.5,   -0.3,   -0.2,  999.0,   -0.5,   -0.6,   -0.5,   -0.8,  999.0,  999.0,  999.0,  999.0,  999.0,  999.0,  999.0,  999.0,  999.0,  999.0,  999.0,  999.0,  999.0,  999.0,  999.0,  999.0,  999.0,  999.0,  999.0,  999.0
2000/03/04 13:50,   -4.3,   -4.2,   -4.3,   -4.2,   -3.9,   -4.0,   -4.2,   -4.4,   -4.0,   -2.0,   -1.4,   -1.1,   -0.9,   -0.8,   -0.8,   -0.6,   -0.2,   -0.1,    0.0,   -0.1,  999.0,  999.0,  999.0,  999.0,  999.0,  999.0,  999.0,  999.0,  999.0,  999.0,  999.0,  999.0,  999.0,  999.0,  999.0,  999.0,  999.0,  999.0,  999.0,  999.0,  999.0,  999.0,  999.0,  999.0,  999.0,  999.0
2000/03/04 14:00,   -5.0,   -4.9,   -4.8,   -4.8,   -4.6,   -4.5,   -4.4,   -4.6,   -4.2,   -2.1,   -1.4,   -1.3,   -1.2,   -1.2,   -1.1,   -1.0,   -0.9,   -0.9,   -0.9,   -0.8,   -0.8,   -0.7,   -0.5,   -0.5,  999.0,  999.0,  999.0,  999.0,  999.0,  999.0,  999.0,  999.0,  999.0,  999.0,  999.0,  999.0,  999.0,  999.0,  999.0,  999.0,  999.0,  999.0,  999.0,  999.0,  999.0,  999.0
2000/03/04 14:10,   -4.5,   -4.6,   -4.6,   -4.7,   -4.5,   -4.5,   -4.4,   -4.4,   -4.0,   -2.4,   -1.9,   -1.5,   -1.3,   -1.3,   -1.2,   -1.2,   -1.3,   -1.2,   -1.1,   -1.0,   -0.9,   -0.9,   -0.9,   -0.8,  999.0,  999.0,  999.0,  999.0,  999.0,  999.0,  999.0,  999.0,  999.0,  999.0,  999.0,  999.0,  999.0,  999.0,  999.0,  999.0,  999.0,  999.0,  999.0,  999.0,  999.0,  999.0
2000/03/04 14:20,   -3.7,   -3.7,   -3.8,   -4.1,   -4.1,   -4.0,   -3.9,   -3.8,   -3.5,   -2.2,   -1.4,   -1.1,   -1.1,   -1.0,   -1.0,   -0.9,   -0.8,   -0.9,   -0.7,   -0.6,   -0.6,   -0.4,   -0.6,   -0.8,   -0.8,   -0.8,  999.0,   -0.7,   -0.6,  999.0,  999.0,  999.0,  999.0,  999.0,  999.0,  999.0,  999.0,  999.0,  999.0,  999.0,  999.0,  999.0,  999.0,  999.0,  999.0,  999.0
2000/03/04 14:30,   -1.5,   -1.5,   -1.5,   -1.2,   -0.8,   -0.8,   -0.7,    0.0,   -0.1,    0.1,   -0.1,   -0.2,   -0.3,   -0.3,   -0.3,   -0.1,   -0.4,   -0.4,   -0.5,   -0.4,   -0.6,   -0.6,   -0.7,   -0.6,   -0.6,  999.0,  999.0,   -0.6,  999.0,  999.0,  999.0,  999.0,  999.0,  999.0,  999.0,  999.0,  999.0,  999.0,  999.0,  999.0,  999.0,  999.0,  999.0,  999.0,  999.0,  999.0
2000/03/04 14:40,   -2.8,   -2.4,   -3.3,   -3.5,   -3.4,   -3.2,   -3.2,   -3.2,   -3.0,   -2.1,   -1.5,   -1.3,   -1.1,   -1.0,   -1.0,   -0.9,   -0.7,   -0.8,   -0.7,   -0.8,   -1.1,   -1.0,   -1.0,   -0.8,   -1.0,   -1.0,   -0.8,   -0.7,   -0.6,   -0.4,   -0.6,  999.0,  999.0,  999.0,  999.0,  999.0,  999.0,  999.0,  999.0,  999.0,  999.0,  999.0,  999.0,  999.0,  999.0,  999.0
2000/03/04 14:50,   -4.2,   -4.1,   -3.7,   -3.9,   -4.0,   -3.8,   -4.2,   -4.0,   -3.2,   -2.3,   -1.6,   -1.4,   -1.3,   -1.2,   -1.2,   -1.1,   -1.2,   -1.0,   -1.0,   -1.0,   -1.1,   -1.0,   -1.2,   -1.2,   -1.1,   -1.2,   -0.9,   -1.0,   -0.8,   -0.7,   -0.6,   -0.6,  999.0,  999.0,  999.0,  999.0,  999.0,  999.0,  999.0,  999.0,  999.0,  999.0,  999.0,  999.0,  999.0,  999.0
2000/03/04 15:00,   -5.2,   -5.7,   -4.9,   -4.7,   -4.8,   -4.1,   -4.7,   -4.3,   -3.7,   -2.4,   -1.4,   -1.2,   -1.1,   -0.8,   -0.7,   -0.8,   -0.8,   -0.8,   -0.8,   -0.8,   -0.8,   -0.8,   -0.8,   -0.8,   -0.8,   -0.8,   -0.8,   -0.8,   -0.8,   -0.8,   -0.8,   -0.7,   -0.5,  999.0,  999.0,  999.0,  999.0,  999.0,  999.0,  999.0,  999.0,  999.0,  999.0,  999.0,  999.0,  999.0
2000/03/04 15:10,   -3.0,   -2.8,   -2.6,   -2.5,   -2.4,   -2.1,   -2.0,   -2.0,   -1.9,   -1.5,   -0.9,   -0.6,   -0.5,   -0.4,   -0.4,   -0.6,   -0.7,   -0.7,   -0.8,   -0.5,   -0.5,  999.0,  999.0,  999.0,  999.0,   -0.4,   -0.6,   -0.7,   -0.5,   -0.4,   -0.4,  999.0,  999.0,  999.0,  999.0,  999.0,  999.0,  999.0,  999.0,  999.0,  999.0,  999.0,  999.0,  999.0,  999.0,  999.0
2000/03/04 15:20,   -3.5,   -3.5,   -3.5,   -3.7,   -3.5,   -3.8,   -3.6,   -3.7,   -3.7,   -2.8,   -2.0,   -1.6,   -1.3,   -1.2,   -1.2,   -0.9,   -0.9,   -0.8,   -0.9,   -0.9,   -1.1,   -0.9,  999.0,  999.0,  999.0,  999.0,  999.0,  999.0,  999.0,  999.0,  999.0,  999.0,  999.0,  999.0,  999.0,  999.0,  999.0,  999.0,  999.0,  999.0,  999.0,  999.0,  999.0,  999.0,  999.0,  999.0
2000/03/04 15:30,   -2.9,   -3.1,   -2.9,   -2.8,   -2.4,   -2.2,   -2.2,   -2.5,   -2.5,   -1.7,   -1.0,   -0.8,   -1.0,   -1.1,   -1.1,   -1.1,   -1.0,   -0.9,   -0.8,   -0.6,   -0.4,   -0.8,   -0.8,  999.0,  999.0,  999.0,  999.0,  999.0,  999.0,  999.0,  999.0,  999.0,  999.0,  999.0,  999.0,  999.0,  999.0,  999.0,  999.0,  999.0,  999.0,  999.0,  999.0,  999.0,  999.0,  999.0
2000/03/04 15:40,   -1.9,   -2.6,   -2.8,   -4.3,   -3.6,   -4.1,   -4.2,   -3.8,   -4.5,   -1.8,   -1.6,   -1.7,   -1.6,   -1.5,   -1.3,   -1.0,   -1.2,   -1.1,   -1.0,   -1.1,   -1.0,   -0.8,   -0.9,   -1.1,   -1.0,   -1.1,   -0.9,   -0.9,   -0.8,  999.0,  999.0,  999.0,  999.0,  999.0,  999.0,  999.0,  999.0,  999.0,  999.0,  999.0,  999.0,  999.0,  999.0,  999.0,  999.0,  999.0
2000/03/04 15:50,   -1.2,   -1.1,   -1.1,   -1.0,   -0.3,   -0.2,   -0.6,   -0.6,   -0.5,   -0.5,    0.1,   -0.2,   -0.3,   -0.4,   -0.6,   -0.5,   -0.5,   -0.5,   -0.6,   -0.7,   -0.7,   -0.8,   -0.8,   -0.9,   -0.9,   -0.9,   -0.9,   -0.9,   -0.8,   -0.8,   -0.6,   -0.6,   -0.6,   -0.5,   -0.5,  999.0,  999.0,  999.0,  999.0,  999.0,  999.0,  999.0,  999.0,  999.0,  999.0,  999.0
2000/03/04 16:00,   -2.3,   -2.4,   -2.1,   -1.8,   -1.6,   -1.3,   -0.6,   -1.0,   -0.9,   -0.5,   -0.5,   -0.4,   -0.2,   -0.3,   -0.3,   -0.1,   -0.3,   -0.7,   -0.7,   -0.8,   -0.8,   -0.8,   -0.8,   -0.8,   -0.8,   -0.7,   -0.7,   -0.8,   -0.7,   -0.7,   -0.5,  999.0,  999.0,  999.0,  999.0,  999.0,  999.0,  999.0,  999.0,  999.0,  999.0,  999.0,  999.0,  999.0,  999.0,  999.0
2000/03/04 16:10,   -2.2,   -1.8,   -1.8,   -1.7,   -1.3,   -0.7,   -0.3,   -0.5,   -0.1,   -0.2,   -0.2,   -0.2,   -0.3,   -0.3,   -0.3,   -0.4,   -0.7,   -0.9,   -0.8,   -0.8,   -0.9,   -0.9,   -0.9,   -1.0,   -1.0,   -0.9,   -0.9,   -0.7,   -0.8,   -0.7,   -0.6,   -0.5,   -0.4,   -0.6,  999.0,  999.0,  999.0,  999.0,  999.0,  999.0,  999.0,  999.0,  999.0,  999.0,  999.0,  999.0
2000/03/04 16:20,   -3.3,   -2.5,   -2.4,   -2.9,   -2.4,   -2.8,   -2.7,   -2.5,   -2.4,   -1.4,   -1.4,   -0.9,   -1.0,   -1.1,   -0.9,   -0.9,   -1.0,   -1.3,   -1.1,   -1.0,   -1.0,   -0.9,   -1.0,   -1.0,   -1.0,   -0.9,   -0.8,   -0.8,   -0.7,   -0.7,   -0.7,   -0.6,  999.0,  999.0,  999.0,  999.0,  999.0,  999.0,  999.0,  999.0,  999.0,  999.0,  999.0,  999.0,  999.0,  999.0
2000/03/04 16:30,   -4.7,  999.0,   -4.2,   -3.9,   -3.7,   -3.6,   -3.2,   -2.8,   -3.3,   -3.0,   -2.3,   -1.4,   -1.3,   -1.2,   -1.0,   -0.8,   -1.0,   -1.1,   -1.2,   -1.0,   -0.9,   -1.0,   -0.9,   -1.1,   -0.8,   -0.7,   -0.7,   -0.7,   -0.6,   -0.6,   -0.4,  999.0,  999.0,  999.0,  999.0,  999.0,  999.0,  999.0,  999.0,  999.0,  999.0,  999.0,  999.0,  999.0,  999.0,  999.0
2000/03/04 16:40,   -2.4,   -2.7,   -2.5,   -2.4,   -2.3,   -2.0,   -2.3,   -1.4,   -0.6,   -0.9,   -0.7,   -0.3,   -0.4,   -0.5,   -0.5,   -1.0,   -0.8,   -1.0,   -1.0,   -1.1,   -1.0,   -1.0,   -0.9,   -1.0,   -0.9,   -0.9,   -0.8,   -0.7,   -0.6,   -0.6,   -0.6,  999.0,  999.0,  999.0,  999.0,  999.0,  999.0,  999.0,  999.0,  999.0,  999.0,  999.0,  999.0,  999.0,  999.0,  999.0
2000/03/04 16:50,   -5.2,   -5.8,   -5.5,   -5.1,   -5.4,   -4.7,   -4.5,   -4.4,   -4.0,   -3.3,   -2.1,   -1.8,   -0.4,   -0.7,   -0.8,   -0.9,   -1.2,   -0.9,   -0.7,   -0.2,   -1.0,   -1.0,   -1.0,   -0.9,   -0.8,   -0.8,   -0.7,   -0.6,   -0.5,   -0.3,   -0.2,  999.0,  999.0,  999.0,  999.0,  999.0,  999.0,  999.0,  999.0,  999.0,  999.0,  999.0,  999.0,  999.0,  999.0,  999.0
2000/03/04 17:00,   -4.0,   -4.1,   -3.5,   -3.4,   -2.8,   -2.6,   -2.4,   -2.4,   -2.3,   -2.0,   -1.5,   -0.9,   -0.7,   -0.5,   -0.5,   -0.6,   -0.9,   -0.7,   -0.6,   -0.9,   -0.9,   -0.9,   -0.9,   -0.9,   -0.9,   -0.9,   -0.8,   -0.8,   -0.7,   -0.6,   -0.7,   -0.7,   -0.4,  999.0,  999.0,  999.0,  999.0,  999.0,  999.0,  999.0,  999.0,  999.0,  999.0,  999.0,  999.0,  999.0
2000/03/04 17:10,   -3.0,   -2.8,   -2.6,   -2.7,   -2.6,   -2.1,   -1.6,   -2.0,   -1.8,   -1.5,   -1.1,   -1.1,   -1.3,   -0.8,   -0.8,   -0.8,   -0.9,   -0.7,   -0.9,   -1.0,   -1.1,   -1.2,   -1.2,   -1.2,   -1.1,   -1.0,   -1.0,   -0.9,   -0.7,   -0.6,   -0.5,   -0.4,   -0.4,   -0.4,   -0.3,   -0.2,   -0.2,  999.0,  999.0,  999.0,  999.0,  999.0,  999.0,  999.0,  999.0,  999.0
2000/03/04 17:20,   -2.2,   -2.3,   -1.9,   -1.5,   -1.1,   -0.9,   -0.6,   -0.2,   -0.1,    0.1,    0.0,   -0.0,   -0.3,   -0.4,   -0.5,   -0.5,   -0.5,   -0.8,   -0.9,   -1.1,   -1.1,   -1.1,   -1.1,   -1.0,   -1.0,   -1.0,   -1.0,   -1.0,   -1.0,   -0.8,   -0.7,   -0.7,   -0.6,   -0.5,   -0.5,   -0.2,  999.0,  999.0,  999.0,  999.0,  999.0,  999.0,  999.0,  999.0,  999.0,  999.0
2000/03/04 17:30,   -1.8,  999.0,   -2.0,   -1.9,   -1.7,   -1.6,   -1.4,   -1.2,   -1.0,   -1.4,   -1.4,   -1.0,   -1.0,   -1.0,   -1.0,   -1.0,   -0.9,   -0.8,   -0.9,   -1.0,   -0.9,   -0.9,   -0.8,   -0.9,   -0.9,   -0.8,   -0.7,   -0.8,   -0.7,   -0.7,   -0.7,   -0.6,   -0.5,   -0.5,   -0.2,   -0.3,  999.0,  999.0,  999.0,  999.0,  999.0,  999.0,  999.0,  999.0,  999.0,  999.0
2000/03/04 17:40,   -3.9,   -4.2,   -4.4,   -4.4,   -4.4,   -4.3,   -4.3,   -4.1,   -4.1,   -2.7,   -1.9,   -1.5,   -1.3,   -1.2,   -1.1,   -1.1,   -1.1,   -0.9,   -0.7,   -0.8,   -1.0,   -0.7,   -1.1,   -1.1,   -1.2,   -1.1,   -1.0,   -1.0,   -0.9,   -0.8,   -0.8,   -0.9,   -0.7,   -0.7,   -0.7,   -0.1,  999.0,  999.0,  999.0,  999.0,  999.0,  999.0,  999.0,  999.0,  999.0,  999.0
2000/03/04 17:50,  999.0,  999.0,   -4.1,   -3.0,   -2.9,   -2.7,   -2.8,   -2.7,   -2.1,   -1.7,   -1.3,   -1.2,   -1.1,   -1.1,   -1.1,   -1.2,   -1.2,   -1.2,   -1.1,   -1.0,   -0.8,   -0.9,   -0.9,   -0.9,   -0.9,   -0.9,   -0.9,   -0.9,   -0.9,   -0.8,   -0.7,   -0.7,   -0.7,   -0.7,   -0.5,  999.0,   -0.5,  999.0,  999.0,  999.0,  999.0,  999.0,  999.0,  999.0,  999.0,  999.0
2000/03/04 18:00,   -3.9,   -3.3,   -2.3,   -3.6,   -4.0,   -3.3,   -3.3,   -3.5,   -3.2,   -2.7,   -1.4,   -1.2,   -1.2,   -1.2,   -1.0,   -0.9,   -0.9,   -0.9,   -0.9,   -1.0,   -0.9,   -0.9,   -0.9,   -0.9,   -0.8,   -0.8,   -0.8,   -0.7,   -0.8,   -0.8,   -0.8,   -0.7,   -0.6,   -0.5,   -0.3,  999.0,  999.0,  999.0,  999.0,  999.0,  999.0,  999.0,  999.0,  999.0,  999.0,  999.0
2000/03/04 18:10,   -4.4,   -4.6,   -4.6,   -4.7,   -4.5,   -4.5,   -4.6,   -4.5,   -4.4,   -3.1,   -1.8,   -1.5,   -1.4,   -1.3,   -1.2,   -1.2,   -1.0,   -1.2,   -1.3,   -1.2,   -1.2,   -1.2,   -1.2,   -1.1,   -1.1,   -1.0,   -1.0,   -0.9,   -0.9,   -0.9,   -0.8,   -0.6,   -0.7,   -0.6,  999.0,  999.0,  999.0,  999.0,  999.0,  999.0,  999.0,  999.0,  999.0,  999.0,  999.0,  999.0
2000/03/04 18:20,   -4.1,   -3.9,   -3.7,   -5.1,   -3.8,   -3.5,   -3.8,   -3.4,   -3.3,   -2.0,   -1.5,   -1.2,   -1.2,   -1.1,   -0.9,   -1.1,   -0.9,   -1.0,   -1.0,   -0.9,   -0.9,   -1.0,   -0.9,   -0.9,   -0.8,   -0.8,   -0.7,   -0.7,   -0.7,   -0.6,   -0.6,   -0.6,   -0.6,   -0.5,   -0.4,   -0.3,  999.0,  999.0,  999.0,  999.0,  999.0,  999.0,  999.0,  999.0,  999.0,  999.0
2000/03/04 18:30,   -3.7,   -3.7,   -3.6,   -3.8,   -3.9,   -3.8,   -3.6,   -3.5,   -3.5,   -2.6,   -1.7,   -1.3,   -1.2,   -1.1,   -1.1,   -1.0,   -1.0,   -1.0,   -1.0,   -1.1,   -1.0,   -1.0,   -1.0,   -0.9,   -0.9,   -0.9,   -0.8,   -0.8,   -0.8,   -0.7,   -0.7,   -0.7,   -0.7,   -0.6,   -0.5,   -0.5,  999.0,  999.0,  999.0,  999.0,  999.0,  999.0,  999.0,  999.0,  999.0,  999.0
2000/03/04 18:40,   -3.8,   -4.1,   -4.2,   -4.1,   -4.2,   -4.3,   -4.5,   -4.2,   -3.9,   -3.1,   -1.5,   -1.3,   -1.2,   -1.1,   -1.0,   -1.0,   -1.0,   -0.9,   -1.0,   -1.0,   -0.9,   -0.8,   -0.8,   -0.7,   -0.8,   -0.7,   -0.8,   -0.8,   -0.8,   -0.7,   -0.7,   -0.7,   -0.7,   -0.6,   -0.6,   -0.4,  999.0,  999.0,  999.0,  999.0,  999.0,  999.0,  999.0,  999.0,  999.0,  999.0
2000/03/04 18:50,   -5.0,   -5.2,   -5.0,   -4.9,   -5.4,   -4.5,   -5.9,   -3.6,   -3.0,  999.0,   -0.6,   -0.8,   -0.7,   -0.6,   -0.6,   -0.9,   -1.0,   -0.9,   -0.8,   -0.8,   -0.8,   -0.8,   -0.9,   -0.8,   -0.8,   -0.8,   -0.7,   -0.7,   -0.6,   -0.7,   -0.7,   -0.6,   -0.7,   -0.6,   -0.7,  999.0,  999.0,  999.0,  999.0,  999.0,  999.0,  999.0,  999.0,  999.0,  999.0,  999.0
2000/03/04 19:00,   -2.7,   -3.0,   -2.6,   -2.8,   -2.4,   -2.7,   -2.2,   -1.4,   -0.8,   -1.1,   -1.0,   -0.7,   -0.5,   -0.7,   -0.7,   -0.7,   -0.7,   -0.7,   -0.6,   -0.6,   -0.6,   -0.7,   -0.6,   -0.7,   -0.6,   -0.7,   -0.7,   -0.8,   -0.7,   -0.7,   -0.5,   -0.6,   -0.7,  999.0,  999.0,  999.0,  999.0,  999.0,  999.0,  999.0,  999.0,  999.0,  999.0,  999.0,  999.0,  999.0
2000/03/04 19:10,   -6.0,   -6.1,   -6.1,   -5.7,   -5.6,   -5.2,   -4.2,   -3.5,   -2.7,   -2.4,   -2.0,   -1.6,   -1.5,   -1.4,   -1.1,   -1.1,   -1.1,   -0.9,   -1.0,   -1.0,   -0.9,   -1.0,   -1.0,   -1.1,   -1.0,   -1.0,   -1.0,   -1.0,   -0.9,   -0.9,   -0.8,   -0.8,   -0.6,   -0.6,  999.0,  999.0,  999.0,  999.0,  999.0,  999.0,  999.0,  999.0,  999.0,  999.0,  999.0,  999.0
2000/03/04 19:20,   -6.4,   -5.6,   -5.8,   -4.7,   -5.1,   -5.1,   -4.2,   -3.6,   -2.7,   -1.9,   -1.7,   -1.5,   -1.4,   -1.3,   -1.2,   -1.3,   -1.3,   -1.4,   -1.3,   -1.2,   -1.2,   -1.2,   -1.2,   -1.1,   -1.1,   -1.0,   -1.0,   -1.0,   -0.9,   -0.9,   -0.8,   -0.8,   -0.8,   -0.8,   -0.7,   -0.6,   -0.8,  999.0,  999.0,  999.0,  999.0,  999.0,  999.0,  999.0,  999.0,  999.0
2000/03/04 19:30,   -4.6,   -5.3,   -6.2,   -6.9,   -7.3,   -6.6,   -4.2,   -2.6,   -2.0,   -1.8,   -1.5,   -1.4,   -1.2,   -1.2,   -1.1,   -1.1,   -1.1,   -1.2,   -1.2,   -1.2,   -1.1,   -1.1,   -1.1,   -1.1,   -1.1,   -1.0,   -1.0,   -0.9,   -0.9,   -0.8,   -0.7,   -0.7,   -0.7,   -0.6,   -0.6,   -0.5,   -0.7,   -0.6,  999.0,  999.0,  999.0,  999.0,  999.0,  999.0,  999.0,  999.0
2000/03/04 19:40,  999.0,   -5.7,   -5.9,   -6.2,   -6.1,   -6.3,   -5.4,   -2.9,   -2.0,   -1.7,   -1.5,   -1.3,   -1.2,   -1.2,   -1.2,   -1.3,   -1.3,   -1.2,   -1.2,   -1.2,   -1.2,   -1.2,   -1.2,   -1.2,   -1.1,   -1.1,   -1.1,   -1.0,   -1.0,   -0.9,   -0.8,   -0.9,   -0.8,   -0.8,   -0.7,   -0.7,   -0.7,   -0.7,   -0.7,   -0.4,  999.0,  999.0,  999.0,  999.0,  999.0,  999.0
2000/03/04 19:50,  999.0,   -5.8,   -6.2,   -6.2,   -6.3,   -6.3,   -5.5,   -2.7,   -1.8,   -1.6,   -1.4,   -1.3,   -1.2,   -1.2,   -1.2,   -1.1,   -1.1,   -1.1,   -1.1,   -1.1,   -1.0,   -1.0,   -1.0,   -1.1,   -1.1,   -1.1,   -1.1,   -1.1,   -1.0,   -1.0,   -1.0,   -1.0,   -0.9,   -0.8,   -0.8,   -0.7,   -0.7,   -0.7,   -0.7,  999.0,  999.0,  999.0,  999.0,  999.0,  999.0,  999.0
2000/03/04 20:00,   -5.3,   -5.2,   -5.2,   -5.2,   -5.3,   -5.3,   -4.1,   -2.6,   -1.7,   -1.7,   -1.5,   -1.5,   -1.4,   -1.4,   -1.4,   -1.3,   -1.3,   -1.2,   -1.2,   -1.2,   -1.2,   -1.3,   -1.3,   -1.3,   -1.3,   -1.2,   -1.2,   -1.1,   -1.0,   -0.9,   -0.9,   -0.8,   -0.8,   -0.7,   -0.7,   -0.6,   -0.4,  999.0,  999.0,  999.0,  999.0,  999.0,  999.0,  999.0,  999.0,  999.0
2000/03/04 20:10,   -4.4,   -4.4,   -4.5,   -4.4,   -4.4,   -4.5,   -4.4,   -2.7,   -1.9,   -1.6,   -1.5,   -1.4,   -1.3,   -1.3,   -1.3,   -1.3,   -1.2,   -1.2,   -1.2,   -1.2,   -1.2,   -1.3,   -1.3,   -1.2,   -1.2,   -1.1,   -1.1,   -1.1,   -1.0,   -1.0,   -0.9,   -0.9,   -0.8,   -0.8,   -0.7,   -0.7,   -0.6,   -0.7,   -0.7,   -0.8,  999.0,  999.0,  999.0,  999.0,  999.0,  999.0
2000/03/04 20:20,   -5.2,   -5.2,   -5.3,   -5.2,   -5.1,   -5.0,   -3.8,   -2.5,   -1.7,   -1.6,   -1.4,   -1.3,   -1.2,   -1.2,   -1.2,   -1.3,   -1.2,   -1.2,   -1.1,   -1.1,   -1.1,   -1.2,   -1.2,   -1.2,   -1.2,   -1.3,   -1.3,   -1.2,   -1.2,   -1.1,   -1.0,   -0.9,   -0.8,   -0.8,   -0.8,   -0.8,   -0.6,   -0.6,   -0.7,   -0.6,   -0.5,  999.0,  999.0,  999.0,  999.0,  999.0
2000/03/04 20:30,   -5.0,   -4.9,   -5.0,   -4.9,   -4.9,   -4.7,  999.0,   -1.9,  999.0,   -1.4,   -1.3,   -1.2,   -1.2,   -1.2,   -1.2,   -1.2,   -1.2,   -1.1,   -1.1,   -1.0,   -1.0,   -1.2,   -1.3,   -1.2,   -1.2,   -1.2,   -1.2,   -1.1,   -1.1,   -1.0,   -1.0,   -0.9,   -0.9,   -0.9,   -0.8,   -0.7,   -0.7,   -0.6,   -0.6,   -0.5,   -0.6,  999.0,  999.0,  999.0,  999.0,  999.0
2000/03/04 20:40,   -5.1,   -5.2,   -5.3,   -5.3,   -5.2,   -3.6,  999.0,   -1.8,   -1.6,   -1.6,   -1.5,   -1.4,   -1.4,   -1.3,   -1.3,   -1.3,   -1.2,   -1.2,   -1.1,   -1.1,   -1.1,   -1.2,   -1.2,   -1.2,   -1.1,   -1.1,   -1.1,   -1.1,   -1.0,   -1.0,   -0.9,   -0.9,   -0.9,   -0.9,   -0.8,   -0.8,   -0.6,   -0.6,   -0.8,   -0.8,   -0.6,   -0.5,   -0.3,   -0.6,  999.0,  999.0
2000/03/04 20:50,   -4.9,   -4.9,   -4.9,   -4.9,   -4.9,   -3.1,   -2.0,   -1.6,   -1.6,   -1.4,   -1.4,   -1.4,   -1.3,   -1.3,   -1.3,   -1.3,   -1.2,   -1.1,   -1.1,   -1.0,   -1.0,   -1.0,   -1.1,   -1.1,   -1.1,   -1.1,   -1.1,   -1.1,   -1.1,   -1.1,   -1.1,   -1.0,   -1.0,   -0.9,   -0.9,   -0.7,   -0.8,   -0.8,   -0.6,   -0.9,  999.0,  999.0,  999.0,  999.0,  999.0,  999.0
2000/03/04 21:00,   -5.6,   -5.6,   -5.6,   -5.7,   -5.6,  999.0,  999.0,  999.0,   -1.6,   -1.6,   -1.5,   -1.5,   -1.5,   -1.6,   -1.5,   -1.6,   -1.4,   -1.4,   -1.2,   -1.0,   -0.9,   -0.9,   -1.1,   -1.2,   -1.1,   -1.1,   -1.1,   -1.1,   -1.1,   -1.0,   -0.9,   -0.8,   -0.8,   -0.7,   -0.7,   -0.6,   -0.6,  999.0,  999.0,  999.0,  999.0,  999.0,  999.0,  999.0,  999.0,  999.0
2000/03/04 21:10,   -6.7,   -6.6,   -6.6,   -6.6,   -5.7,  999.0,  999.0,   -1.9,   -1.8,   -1.6,   -1.5,   -1.4,   -1.3,   -1.3,   -1.4,   -1.3,   -1.2,   -1.1,   -1.1,   -1.1,   -1.0,   -1.1,   -1.1,   -1.1,   -1.1,   -1.1,   -1.0,   -1.0,   -1.1,   -1.0,   -0.9,   -0.8,   -0.9,   -0.8,   -0.7,   -0.6,   -0.6,   -0.6,  999.0,  999.0,  999.0,  999.0,  999.0,  999.0,  999.0,  999.0
2000/03/04 21:20,   -6.2,   -6.4,   -6.5,   -6.5,   -5.3,  999.0,  999.0,  999.0,  999.0,   -1.6,   -1.5,   -1.5,   -1.5,   -1.3,   -1.2,   -1.2,   -1.1,   -1.1,   -1.1,   -1.2,   -1.3,   -1.3,   -1.2,   -1.2,   -1.2,   -1.0,   -1.1,   -1.1,   -1.0,   -1.0,   -0.9,   -0.7,   -0.7,   -0.7,   -0.7,   -0.4,   -0.5,  999.0,  999.0,  999.0,  999.0,  999.0,  999.0,  999.0,  999.0,  999.0
2000/03/04 21:30,   -7.5,   -7.6,   -7.6,   -7.3,  999.0,  999.0,  999.0,   -2.0,   -1.8,   -1.7,   -1.6,   -1.4,   -1.2,   -1.1,   -1.1,   -1.1,   -1.0,   -1.0,   -1.0,   -1.1,   -1.2,   -1.1,   -1.1,   -1.0,   -1.1,   -1.0,   -1.0,   -0.9,   -0.8,   -0.7,   -0.7,   -0.7,   -0.6,   -0.6,   -0.5,   -0.5,   -0.5,   -0.4,   -0.3,   -0.4,   -0.1,  999.0,  999.0,  999.0,  999.0,  999.0
2000/03/04 21:40,   -7.1,   -7.1,   -7.2,   -6.8,   -5.4,   -3.3,   -2.2,   -1.9,   -1.7,   -1.6,   -1.5,   -1.1,   -1.0,   -1.0,   -1.0,   -1.0,   -1.0,   -1.1,   -1.1,   -1.0,   -1.0,   -1.0,   -0.9,   -0.9,   -0.9,   -0.9,   -0.9,   -0.9,   -0.8,   -0.8,   -0.7,   -0.7,   -0.7,   -0.6,   -0.6,   -0.5,   -0.4,   -0.4,   -0.4,   -0.3,   -0.3,  999.0,  999.0,  999.0,  999.0,  999.0
2000/03/04 21:50,   -7.4,   -7.5,   -7.5,   -7.5,   -6.0,   -3.6,   -2.5,   -2.0,   -1.8,   -1.6,   -1.6,   -1.4,   -0.9,   -1.0,   -0.9,   -1.0,   -0.9,   -1.0,   -0.9,   -0.9,   -0.9,   -0.9,   -0.9,   -1.0,   -1.0,   -0.9,   -0.9,   -0.9,   -0.8,   -0.8,   -0.7,   -0.6,   -0.6,   -0.5,   -0.4,   -0.4,   -0.3,   -0.0,  999.0,  999.0,  999.0,  999.0,  999.0,  999.0,  999.0,  999.0
2000/03/04 22:00,   -7.3,   -7.5,   -7.5,   -7.4,   -6.6,   -3.7,   -2.6,   -2.2,   -1.8,   -1.6,   -1.4,   -1.3,   -1.2,   -1.2,   -1.1,   -1.0,   -1.0,   -1.0,   -0.9,   -0.9,   -0.9,   -1.0,   -1.0,   -1.0,   -0.9,   -0.8,   -0.9,   -0.8,   -0.7,   -0.7,   -0.6,   -0.5,   -0.4,   -0.4,   -0.3,   -0.3,   -0.3,  999.0,  999.0,   -0.2,  999.0,  999.0,  999.0,  999.0,  999.0,  999.0
2000/03/04 22:10,   -6.7,   -6.9,   -7.0,   -7.0,   -6.5,   -3.5,   -2.1,   -1.9,   -1.4,   -1.2,   -1.1,   -1.3,   -1.3,   -1.3,   -1.2,   -1.2,   -1.1,   -1.1,   -1.0,   -0.9,   -0.9,   -0.9,   -0.9,   -0.9,   -0.8,   -0.8,   -0.8,   -0.8,   -0.8,   -0.8,   -0.7,   -0.7,   -0.7,   -0.6,   -0.6,   -0.4,   -0.4,   -0.5,   -0.7,   -0.1,  999.0,  999.0,  999.0,  999.0,  999.0,  999.0
2000/03/04 22:20,   -7.3,   -7.5,   -7.6,   -7.5,   -5.7,   -3.3,   -2.4,   -2.0,   -1.8,   -1.6,   -1.5,   -1.4,   -1.4,   -1.4,   -1.3,   -1.2,   -1.1,   -1.0,   -1.0,   -1.0,   -1.0,   -1.0,   -0.9,   -1.0,   -1.0,   -1.0,   -0.9,   -0.9,   -0.8,   -0.7,   -0.6,   -0.6,   -0.6,   -0.6,   -0.6,   -0.5,   -0.5,   -0.5,   -0.7,   -0.6,   -0.5,  999.0,  999.0,  999.0,  999.0,  999.0
2000/03/04 22:30,   -6.7,   -6.9,   -7.0,   -6.7,   -5.8,   -3.7,   -2.9,   -2.0,   -1.7,   -1.5,   -1.4,   -1.4,   -1.3,   -1.2,   -1.1,   -1.1,   -1.1,   -1.0,   -0.9,   -1.0,   -0.9,   -0.9,   -1.0,   -1.0,   -1.0,   -1.0,   -0.9,   -0.9,   -0.8,   -0.8,   -0.8,   -0.7,   -0.7,   -0.6,   -0.6,   -0.5,   -0.5,   -0.6,   -0.4,   -0.5,  999.0,  999.0,  999.0,  999.0,  999.0,  999.0
2000/03/04 22:40,   -6.3,   -6.5,   -6.4,   -6.5,   -5.7,  999.0,  999.0,  999.0,  999.0,   -1.3,   -1.4,   -1.3,   -1.2,   -1.1,   -1.2,   -1.1,   -1.0,   -1.0,   -1.0,   -1.0,   -0.9,   -1.0,   -1.0,   -1.0,   -0.9,   -0.8,   -0.8,   -0.8,   -0.7,   -0.7,   -0.7,   -0.8,   -0.7,   -0.7,  999.0,  999.0,  999.0,  999.0,  999.0,  999.0,  999.0,  999.0,  999.0,  999.0,  999.0,  999.0
2000/03/04 22:50,   -5.1,   -4.8,   -4.8,   -4.8,   -4.4,   -3.8,   -1.8,  999.0,  999.0,   -1.4,   -1.3,   -1.3,   -1.3,   -1.2,   -1.2,   -1.2,   -1.2,   -1.2,   -1.1,   -1.1,   -1.1,   -1.1,   -1.0,   -1.1,   -1.1,   -1.0,   -1.0,   -1.0,   -1.0,   -0.9,   -1.0,   -0.9,   -0.8,  999.0,  999.0,  999.0,  999.0,  999.0,  999.0,  999.0,  999.0,  999.0,  999.0,  999.0,  999.0,  999.0
2000/03/04 23:00,   -3.4,   -3.6,   -3.9,   -3.7,   -3.8,   -3.4,  999.0,  999.0,  999.0,  999.0,   -1.1,   -0.9,   -0.8,   -0.6,   -0.8,   -0.9,   -1.0,   -1.0,   -1.0,   -1.1,   -1.1,   -1.2,   -1.2,   -1.3,   -1.3,   -1.2,   -1.2,   -1.1,   -1.0,   -1.0,   -1.0,   -0.9,   -0.9,   -0.7,   -0.7,   -0.6,   -0.7,   -0.5,   -0.5,  999.0,  999.0,  999.0,  999.0,  999.0,  999.0,  999.0
2000/03/04 23:10,   -2.5,   -2.6,   -2.6,   -2.7,   -3.1,   -2.6,   -1.4,   -1.1,   -1.1,   -0.9,   -0.9,   -0.7,   -0.6,   -0.6,  999.0,   -0.9,   -0.8,   -0.9,   -0.9,   -1.0,   -1.0,   -1.0,   -1.1,   -1.0,   -1.0,   -1.0,   -1.0,   -0.9,   -0.9,   -0.8,   -0.8,   -0.7,   -0.7,   -0.6,   -0.5,   -0.6,   -0.5,   -0.5,   -0.5,  999.0,  999.0,  999.0,  999.0,  999.0,  999.0,  999.0
2000/03/04 23:20,   -2.8,   -2.6,   -2.6,   -2.4,   -2.3,   -2.1,   -1.2,   -1.0,   -1.1,   -1.1,   -1.3,   -1.3,   -1.2,   -1.1,   -1.1,   -1.0,   -0.9,   -0.9,   -0.9,   -0.8,   -0.8,   -0.8,   -0.9,   -0.9,   -1.0,   -1.0,   -1.0,   -1.0,   -0.9,   -0.9,   -0.9,   -0.9,   -0.8,   -0.8,   -0.7,   -0.6,   -0.6,   -0.5,   -0.5,   -0.3,   -0.3,  999.0,  999.0,  999.0,  999.0,  999.0
2000/03/04 23:30,   -2.9,   -2.9,   -3.3,   -3.4,   -3.4,   -1.9,   -1.1,  999.0,   -1.3,   -1.3,   -1.3,   -1.3,   -1.3,   -1.3,   -1.2,   -1.2,   -1.2,   -1.2,   -1.2,   -1.1,   -1.0,   -1.0,   -1.0,   -1.0,   -1.0,   -0.9,   -0.9,   -0.8,   -0.9,   -0.9,   -0.9,   -0.8,   -0.8,   -0.8,   -0.7,   -0.5,   -0.5,   -0.6,   -0.5,  999.0,  999.0,  999.0,  999.0,  999.0,  999.0,  999.0
2000/03/04 23:40,   -3.3,   -3.6,   -3.7,   -3.9,   -3.8,   -2.6,   -1.7,   -1.6,   -1.7,   -1.7,   -1.7,   -1.6,   -1.5,   -1.5,   -1.4,   -1.3,   -1.4,   -1.3,   -1.3,   -1.3,   -1.3,   -1.3,   -1.1,   -1.1,   -1.2,   -1.2,   -1.3,   -1.1,   -1.0,   -0.9,   -0.9,   -0.9,   -0.9,   -0.8,   -0.7,   -0.8,   -0.6,  999.0,   -0.7,  999.0,  999.0,  999.0,  999.0,  999.0,  999.0,  999.0
2000/03/04 23:50,   -4.9,   -5.3,   -5.4,   -5.4,   -5.2,  999.0,   -1.6,   -1.5,   -1.7,   -1.7,   -1.6,   -1.6,   -1.5,   -1.4,   -1.2,   -1.2,   -1.2,   -1.1,   -1.1,   -1.2,   -1.2,   -1.1,   -1.0,   -1.0,   -1.1,   -1.1,   -1.1,   -1.1,   -1.0,   -0.9,   -0.9,   -0.9,   -0.8,   -0.9,   -0.8,   -0.7,   -0.6,   -0.4,  999.0,  999.0,  999.0,  999.0,  999.0,  999.0,  999.0,  999.0
